SCP
1 1 1 0 0 0 0 0 0 0 0 0 0 0 0 0 0 0 0 0 0 0 0 0 0 0 0 0 1 0 0 0 0 0 0 0 0 0 0 0 0 0 0 0
1 1 0 0 0 0 0 0 0 0 0 0 0 0 0 0 0 0 0 0 0 0 0 0 0 0 0 1 1 1 0 0 0 0 0 0 0 0 0 0 0 0 0 0
1 0 0 0 0 0 0 0 0 0 0 0 0 0 0 0 0 0 0 0 0 0 0 0 0 0 0 1 1 1 1 0 0 0 0 0 0 0 0 0 0 0 0 0
0 0 0 0 0 0 0 0 0 0 0 0 0 0 0 0 0 0 0 0 0 0 0 0 0 0 0 1 1 1 1 1 0 0 0 0 0 0 0 0 0 0 0 0
0 0 0 0 0 0 0 0 0 0 0 0 0 0 0 0 0 0 0 0 0 0 0 0 0 0 0 1 1 1 1 1 0 0 0 0 0 0 0 0 0 0 0 0
0 0 0 0 0 0 0 0 0 0 0 0 0 0 0 0 0 0 0 0 0 0 0 0 0 0 0 1 1 1 1 1 0 0 0 0 0 0 0 0 0 0 0 0
0 0 0 0 0 0 0 0 0 0 0 0 0 0 0 0 0 0 0 0 0 0 0 0 0 0 0 0 1 1 1 1 0 0 0 0 0 0 0 0 0 0 0 0
0 0 0 0 0 0 0 0 0 0 0 0 0 0 0 0 0 0 0 0 0 0 0 0 0 0 0 0 1 1 1 1 1 0 0 0 0 0 0 0 0 0 0 0
0 0 0 0 0 0 0 0 0 0 0 0 0 0 0 0 0 0 0 0 0 0 0 0 0 0 0 0 1 1 1 1 1 0 0 0 0 0 0 0 0 0 0 0
0 0 0 0 0 0 0 1 1 1 0 0 0 0 0 0 0 0 0 0 0 0 0 0 0 0 0 0 0 0 1 0 0 0 0 0 0 0 0 0 0 0 0 0
0 0 0 0 0 0 0 1 1 1 1 0 0 0 0 0 0 0 0 0 0 0 0 0 0 0 0 0 0 0 0 0 0 0 0 0 0 0 0 0 0 0 0 0
0 0 0 0 0 0 0 1 1 1 1 0 0 0 0 0 0 0 0 0 0 0 0 0 0 0 0 0 0 0 0 0 0 0 0 0 0 0 0 0 0 0 0 0
1 1 0 0 0 0 0 1 1 1 1 0 0 0 0 0 0 0 0 0 0 0 0 0 0 0 0 0 0 0 0 0 0 0 0 0 0 0 0 0 0 0 0 0
1 1 1 0 0 0 0 0 1 1 1 1 0 0 0 0 0 0 0 0 0 0 0 0 0 0 0 0 0 0 0 0 0 0 0 0 0 0 0 0 0 0 0 0
1 1 0 0 0 0 0 0 0 0 1 0 0 0 0 0 0 0 0 0 0 0 0 0 0 0 0 0 0 0 0 0 0 0 0 0 0 0 0 0 0 0 0 0
0 0 0 0 0 0 0 0 0 0 0 0 0 0 0 0 0 0 0 0 0 0 0 0 0 0 0 0 0 0 0 0 0 0 0 0 0 0 0 0 0 0 0 0
0 0 0 0 0 0 0 0 0 0 0 0 0 0 0 0 0 0 0 0 0 0 0 0 0 0 0 0 0 0 0 0 0 0 0 0 0 0 0 0 0 0 0 0
0 0 0 0 0 0 0 0 0 0 0 0 0 0 0 0 0 0 0 0 0 0 0 0 0 0 0 0 0 0 0 0 0 0 0 0 0 0 0 0 0 0 0 0
0 0 0 0 0 0 0 0 0 0 0 0 0 0 0 0 0 0 0 0 0 0 0 0 0 0 0 0 0 0 0 0 0 0 0 0 0 0 0 0 0 0 0 0
0 0 0 0 0 0 0 0 0 0 0 0 0 0 0 0 0 0 0 0 0 0 0 0 0 0 0 0 0 0 0 0 0 0 0 0 0 0 0 0 0 0 0 0
0 0 0 0 0 0 0 0 0 0 0 0 0 0 0 0 0 0 0 0 0 0 0 0 0 0 0 0 0 0 0 0 0 0 0 0 0 0 0 0 0 0 0 0
0 0 0 0 0 0 0 0 0 0 0 0 0 0 0 0 0 0 0 0 0 0 0 0 0 0 0 0 0 0 0 0 0 0 0 0 0 0 0 0 0 0 0 0
0 0 0 0 0 0 0 0 0 0 0 0 0 0 0 0 0 0 0 0 0 0 0 0 0 0 0 0 0 0 0 0 0 0 0 0 0 0 0 0 0 0 0 0
0 0 0 0 0 0 0 0 0 0 0 0 0 0 0 0 0 0 0 0 0 0 0 0 0 0 0 0 0 0 0 0 0 0 0 0 0 0 0 0 0 0 0 0
0 0 0 0 0 0 0 0 0 0 0 0 0 0 0 0 0 0 0 0 0 0 0 0 0 0 0 0 0 0 0 0 0 0 0 0 0 0 0 0 0 0 0 0
0 0 0 0 0 0 0 0 0 0 0 0 0 0 0 0 0 0 0 0 0 0 0 0 0 0 0 0 0 0 0 0 0 0 0 0 0 0 0 0 0 0 0 0
Wind_Speed
8 9 14 17 16 8 7 8 9 7 6 8 12 14 13 10 8 10 10 10 11 13 13 10 11 12 11 11 12 13 13 13 11 8 9 9 10 8 7 8 9 10 10 10
8 17 15 11 11 10 8 9 8 5 5 7 9 14 12 12 12 12 13 13 13 11 9 9 10 10 12 13 14 14 14 13 13 11 9 6 6 5 7 6 8 10 11 11
18 8 10 10 10 14 14 13 11 6 2 4 4 10 12 11 11 11 12 12 11 13 13 11 10 11 12 13 14 13 15 15 14 12 6 4 3 3 5 8 9 11 12 12
14 8 9 12 14 15 17 12 10 8 5 6 6 9 9 11 12 13 14 12 13 13 12 11 10 10 12 13 12 13 13 13 13 12 10 11 11 12 12 9 8 9 11 12
12 11 13 16 16 15 7 7 10 10 9 8 7 9 9 7 13 15 14 14 13 12 11 11 11 11 11 11 10 11 11 11 12 12 14 13 13 12 7 6 7 9 9 12
9 7 12 12 10 11 5 4 3 5 7 16 16 12 11 10 14 10 11 13 13 12 11 10 9 8 8 7 8 8 10 10 10 12 13 14 15 13 9 9 9 9 8 9
10 9 7 6 9 9 9 8 7 9 11 13 10 13 14 10 11 13 13 13 12 10 10 9 8 7 7 7 7 7 9 9 9 11 12 13 14 13 13 11 10 9 8 9
13 13 14 9 12 13 16 15 12 10 9 6 7 15 12 8 10 10 11 11 9 9 9 9 8 7 7 6 7 7 7 8 7 8 10 10 10 8 8 10 9 9 9 9
12 11 6 12 9 13 13 15 10 4 2 4 8 8 8 5 8 10 9 8 9 9 8 7 6 5 5 5 5 6 6 6 6 6 7 7 7 8 8 8 8 7 7 7
7 6 7 8 6 9 11 10 7 10 10 12 8 9 9 6 9 9 9 9 8 6 5 4 4 3 3 4 3 3 4 5 5 4 5 4 5 6 6 5 6 7 7 7
6 6 4 8 14 16 11 13 10 8 7 8 9 10 8 10 11 11 10 8 7 6 5 4 2 1 1 2 2 2 2 2 2 2 2 3 3 4 4 4 5 6 6 6
9 6 7 9 8 10 12 14 15 12 10 8 9 11 3 6 7 8 8 6 5 4 3 3 2 2 2 2 1 1 1 1 2 2 2 2 2 2 3 4 5 5 6 6
9 7 7 5 5 7 11 12 14 11 7 8 9 11 3 2 3 3 4 3 2 2 2 2 2 2 2 2 2 2 1 0 0 0 0 1 1 2 3 4 4 4 5 5
8 7 11 15 9 9 12 14 15 14 12 13 14 12 8 4 3 2 2 2 2 2 2 2 2 1 2 2 2 2 3 3 2 2 1 2 2 3 4 4 4 4 5 5
7 8 9 10 8 7 10 14 17 19 18 14 14 16 15 9 7 6 4 3 2 2 2 3 2 1 2 2 3 3 3 4 3 3 3 3 4 4 4 4 4 5 5 5
7 7 7 10 10 10 11 15 18 21 19 17 12 15 12 9 6 6 6 5 5 4 3 3 3 3 2 1 1 2 3 3 4 3 3 4 4 5 5 5 5 5 6 6
6 6 8 11 9 7 15 18 19 17 16 17 20 20 9 9 10 10 8 7 7 6 5 4 4 3 2 2 1 1 2 3 4 3 3 4 4 5 5 6 5 6 6 6
8 8 6 6 7 18 12 10 14 16 16 15 14 12 11 12 9 6 7 9 8 7 6 5 4 3 2 2 2 2 2 3 3 3 4 4 4 5 6 6 6 6 6 6
11 10 7 7 10 10 7 7 12 15 16 14 16 14 10 8 4 6 7 8 8 8 7 5 4 3 3 3 3 3 2 3 3 3 4 5 5 5 6 6 7 6 6 6
11 10 9 8 9 12 11 8 6 7 11 11 14 15 12 9 9 11 7 7 6 5 4 4 4 4 3 2 2 3 2 3 3 4 4 4 4 4 5 6 7 6 6 6
10 10 14 12 10 10 8 4 8 10 12 7 11 12 11 12 11 5 5 5 5 5 5 5 5 4 3 2 3 3 2 2 3 4 4 4 4 5 5 5 5 6 5 6
12 10 11 10 10 12 5 7 12 9 3 3 5 6 6 6 4 3 5 5 6 5 5 5 5 4 3 3 3 2 1 2 3 3 4 4 4 4 4 5 5 5 5 5
10 10 7 10 9 4 5 7 5 3 4 4 4 4 5 4 4 4 4 5 5 6 5 5 5 5 3 3 2 2 1 3 3 3 4 4 4 4 4 4 5 5 4 4
5 3 5 6 6 4 4 3 2 3 4 4 4 4 5 5 5 4 5 5 5 5 5 4 5 4 2 2 2 1 2 3 2 3 3 4 4 4 4 4 4 4 4 4
6 4 4 7 6 3 5 6 5 3 3 2 2 3 5 6 5 5 5 5 4 4 4 4 4 3 2 1 1 2 2 2 2 2 3 3 3 4 4 4 4 5 4 4
6 7 9 10 8 7 6 5 6 5 5 4 4 3 2 4 5 5 5 4 4 4 4 3 3 3 2 1 0 1 2 2 2 2 3 3 3 3 4 4 5 7 6 9
Wind_Direction
184 194 208 206 207 212 187 192 210 215 202 202 227 239 243 240 237 240 242 240 237 237 237 227 219 215 210 206 202 201 201 200 192 192 199 204 213 213 212 214 212 210 210 208
197 220 215 202 205 214 214 215 222 243 216 213 240 249 245 234 228 228 234 239 239 241 246 236 223 212 206 205 204 203 202 199 197 201 200 202 202 212 217 216 217 215 214 212
208 213 191 194 197 208 222 217 212 219 260 247 264 268 245 244 234 235 235 236 237 233 236 235 223 215 208 208 207 205 205 202 201 199 184 178 185 209 213 218 221 219 216 215
224 219 184 197 208 202 227 215 210 213 213 240 211 262 245 231 238 237 239 238 238 238 234 230 222 218 213 212 207 206 204 203 201 194 191 193 203 214 219 218 219 217 215 218
217 193 194 207 208 197 214 185 203 213 218 242 222 248 260 215 232 235 234 235 237 236 233 230 224 218 214 210 203 203 201 202 198 195 199 202 214 223 224 213 217 219 219 220
229 204 198 207 203 193 173 144 191 210 220 240 223 226 257 208 217 224 227 231 234 232 230 230 228 216 213 208 201 199 198 204 200 198 201 206 215 220 219 218 220 221 221 222
224 227 216 181 178 185 175 172 201 211 217 237 202 218 247 212 209 211 220 227 230 227 223 222 220 214 210 204 202 199 198 205 203 201 205 210 217 219 221 223 224 224 223 223
205 219 205 197 190 190 197 193 201 206 213 233 192 224 246 216 216 218 222 226 224 225 222 221 218 209 204 200 196 193 196 204 204 205 212 215 218 221 226 226 226 225 227 229
199 225 195 197 183 178 192 209 213 214 226 234 228 249 282 230 223 226 229 222 223 223 217 212 212 204 197 193 193 191 192 201 205 208 213 217 219 223 230 231 230 233 234 234
183 212 210 193 174 205 194 178 177 208 217 231 240 233 232 209 217 222 220 219 222 213 207 205 205 196 189 185 185 177 180 192 202 207 210 215 221 226 233 235 238 240 241 238
193 203 214 183 195 196 186 194 199 202 207 215 238 247 220 208 209 212 215 209 201 198 197 194 182 163 144 128 139 156 170 178 185 200 210 217 229 232 236 241 246 248 251 247
193 193 223 222 223 208 202 203 199 207 216 213 234 254 230 211 207 197 203 204 195 188 186 174 154 117 90 86 99 125 154 181 198 196 205 225 241 247 249 253 257 258 258 256
181 194 213 231 236 213 214 210 210 215 212 213 222 249 251 199 186 180 178 184 174 159 144 120 109 110 105 88 65 57 56 34 351 112 173 270 282 280 271 269 271 273 271 269
198 207 212 219 213 192 209 214 209 209 221 228 227 243 255 242 220 233 217 197 182 174 149 133 121 101 81 71 64 48 29 22 25 33 21 334 312 298 289 289 291 286 280 277
198 220 229 244 240 212 220 217 214 219 221 226 232 234 241 230 226 229 225 214 210 218 178 164 155 125 83 62 47 38 26 21 26 30 16 349 335 330 328 324 316 307 298 287
197 217 220 243 238 226 231 225 220 223 224 229 240 248 243 239 231 232 225 213 213 219 209 191 173 151 138 107 63 37 23 16 25 30 11 354 349 346 343 334 329 322 314 308
197 206 216 239 231 227 234 220 217 221 220 218 231 239 231 227 219 216 213 210 210 214 215 199 190 180 167 134 96 58 26 20 29 23 6 357 351 343 335 330 329 325 319 314
198 208 221 229 213 234 239 215 211 221 228 220 227 233 223 225 226 214 206 203 208 209 206 203 195 182 151 119 96 75 54 46 37 18 4 356 350 341 335 332 326 320 315 312
203 204 212 218 230 246 265 224 198 207 233 220 223 231 228 224 225 242 222 206 206 204 199 193 186 168 144 127 113 96 66 50 38 16 358 345 341 336 332 328 322 318 316 313
204 203 209 214 222 227 229 215 187 175 244 225 215 224 220 197 222 239 212 198 200 189 174 163 151 137 127 113 105 96 71 45 16 352 338 333 332 328 324 319 316 312 309 305
193 204 214 221 230 244 238 203 144 187 232 220 207 217 207 209 225 222 168 168 166 156 146 140 135 131 129 115 105 100 78 30 343 332 331 334 331 324 316 313 313 312 311 312
195 197 206 206 219 238 213 166 184 210 210 186 192 204 200 209 198 165 158 155 149 145 140 135 130 122 110 102 105 102 69 351 342 337 334 330 325 321 321 318 318 318 319 320
209 204 199 205 216 223 179 199 213 196 200 209 192 190 174 178 190 177 164 157 156 152 142 131 128 122 105 84 89 102 3 356 350 340 328 321 322 324 324 322 322 323 323 320
237 200 196 224 236 221 219 235 240 217 211 212 195 182 163 166 175 170 159 151 146 141 138 128 125 127 118 78 58 50 4 355 341 327 325 327 330 332 334 331 326 322 323 324
221 194 208 238 243 236 236 224 217 205 187 175 166 161 163 161 168 170 167 165 160 151 140 136 144 151 147 99 51 24 4 349 338 332 332 332 333 333 334 332 322 317 318 328
217 207 209 230 222 211 224 211 201 194 201 192 168 163 164 164 169 166 168 165 157 154 147 144 145 144 144 130 20 351 350 352 348 336 334 332 330 331 331 328 326 327 324 330